Volver al catálogo

STARLINK-11194

ActivoComunicacionesVLEO
NORAD 60187·PAYLOAD·🇺🇸 United States

Lanzado Jul 3, 2024 desde Cape Canaveral Space Force Station

Loading…

Próximos Pases (próximas 24 horas)

TLE

ActualizadoSource: CelesTrak SupGP

Época: Sep 14, 2026, 21:33 UTC

1 60187C 24124E   26257.89840278 -.00091977  00000+0 -75771-3 0  2574
2 60187  53.1571 308.2150 0001175  82.7797 350.5126 15.69753229    11

Sigue STARLINK-11194 en tiempo real con AllMySat

Download on the App Store